User: anonymous   Login
Location: Alincthun
(50.7310°N, 1.8022°E)
Time: 19:18:59
(UTC+00:00)
Language:

Cosmos 1943 Rocket - Orbit

View from above orbital plane
View from above orbital plane
View from above satellite
View from above satellite

Ground track
Ground track

The orbit data is extracted from the following two-line orbital elements,

1 19120U 88039B   20158.54312224 -.00000017 +00000-0 +14972-4 0  9996
2 19120 071.0128 191.5778 0023349 319.3764 040.5618 14.19211502660109
Epoch (UTC): 06 June 2020 13:02:05
Eccentricity: 0.0023349
inclination: 71.0128°
perigee height: 811 km
apogee height: 845 km
right ascension of ascending node: 191.5778°
argument of perigee: 319.3764°
revolutions per day: 14.19211502
mean anomaly at epoch: 40.5618°
orbit number at epoch: 66010

The dashed part of the orbit path shows where the satellite is in the earth's shadow,  

DLR